Content
SEND FEEDBACK

Daily
Averages
Monthly
Summary
United States of America

PATRICK SPRINGS, VIRGINIA


Home > North America > United States > Virginia
Elevation: 135 feet     Latitude: 36 38N     Longitude: 080 16W

WEATHER
 
SELECT A DAY
Number of Records: 437,362;   Date Range: 7/8/95 - 9/29/14
 
SHARE

PRINT THIS DATA

[ ← Previous Day ]
WEATHER ALMANAC - AUGUST 8, 2014
[ Next Day → ]
[ °C ]   °F
Weather ElementAverageHighLow
Temperature68.9 °F74.3 °F (8:15 pm)62.6 °F (3:55 am)
Dewpoint67.3 °F71.2 °F (5:35 pm)62.2 °F (3:55 am)
Humidity94.9 %99 % (1:55 am)81 % (5:15 pm)
Barometer30.14 in30.19 in (10:55 am)30.10 in (11:55 pm)
Wind Speed0.5 mph5.8 mph (12:35 pm)
Weather ElementAverage
Visibility3.8 mi
Wind DirectionNNE (11 °)

Weather ElementTotal
Precipitation0.26 in
Cooling Degree Days3.5 (Base 65)
Growing Degree Days18.5 (Base 50)
Averaged from 68 records on August 8, 2014
WEATHER CONDITIONS BREAKOUT
WIND DIRECTION BREAKOUT
WEATHER BY HOUR - AUGUST 8, 2014
[ °C ]   °F
Local TimeTemperatureDewpointHumidityBarometerVisibilityWind DirectionWind SpeedGust SpeedPrecipitationEventsConditions
12:15 AM66.0 °F65.5 °F98 %30.10 in5.0 miCalmClear
12:35 AM64.8 °F64.4 °F99 %30.11 in2.5 miCalmClear
12:55 AM64.4 °F63.9 °F98 %30.11 in2.5 miCalmScattered Clouds
1:15 AM66.2 °F65.7 °F98 %30.11 in3.0 miCalmOvercast
1:35 AM65.5 °F65.3 °F99 %30.12 in3.0 miCalmMostly Cloudy
1:55 AM66.2 °F65.7 °F98 %30.11 in4.0 miCalmOvercast
2:15 AM66.2 °F65.5 °F98 %30.11 in3.0 miCalmMostly Cloudy
2:35 AM64.9 °F64.4 °F98 %30.10 in4.0 miCalmScattered Clouds
2:55 AM65.1 °F64.6 °F98 %30.11 in4.0 miCalmClear
3:15 AM64.0 °F63.7 °F99 %30.11 in2.5 miCalmScattered Clouds
3:35 AM64.4 °F63.9 °F98 %30.11 in3.0 miCalmScattered Clouds
3:55 AM63.5 °F63.1 °F99 %30.11 in2.5 miCalmScattered Clouds
4:15 AM63.5 °F63.0 °F98 %30.11 in2.5 miCalmScattered Clouds
4:35 AM63.3 °F63.0 °F99 %30.10 in2.5 miCalmScattered Clouds
4:55 AM62.6 °F62.2 °F99 %30.10 in2.5 miCalmClear
5:15 AM63.7 °F63.3 °F99 %30.10 in3.0 miCalmClear
5:35 AM62.6 °F62.2 °F99 %30.12 in2.5 miCalmClear
5:55 AM63.5 °F63.1 °F99 %30.12 in2.5 miCalmMostly Cloudy
6:15 AM64.4 °F64.0 °F99 %30.13 in4.0 miCalmOvercast
6:35 AM64.6 °F64.4 °F99 %30.14 in3.0 miCalmOvercast
6:55 AM66.2 °F65.7 °F98 %30.15 in3.0 miCalmOvercast
7:15 AM66.4 °F65.7 °F98 %30.16 in2.5 miCalmOvercast
7:35 AM67.8 °F66.4 °F95 %30.15 in4.0 miCalmOvercast
7:55 AM68.0 °F67.1 °F97 %30.16 in2.5 miCalmOvercast
8:15 AM68.2 °F67.3 °F97 %30.16 in2.0 miCalmOvercast
8:35 AM68.9 °F68.0 °F97 %30.17 in1.5 miCalmOvercast
8:55 AM69.1 °F68.7 °F99 %30.16 in1.0 miCalmOvercast
9:15 AM69.8 °F69.1 °F98 %30.17 in0.8 miCalmOvercast
9:35 AM70.0 °F69.1 °F97 %30.17 in1.2 miCalmOvercast
9:55 AM70.5 °F68.9 °F95 %30.18 in2.0 miCalmOvercast
10:15 AM70.7 °F69.1 °F95 %30.18 in2.5 miCalmOvercast
10:35 AM70.7 °F69.1 °F95 %30.18 in2.0 miCalmOvercast
10:55 AM71.2 °F69.1 °F93 %30.19 in3.0 miCalmOvercast
11:15 AM71.6 °F69.3 °F92 %30.19 in3.0 miCalmOvercast
11:35 AM72.0 °F69.3 °F91 %30.19 in3.0 miCalmLight Drizzle
11:55 AM73.0 °F69.6 °F89 %30.19 in4.0 miCalmRainLight Rain
12:15 PM72.7 °F69.8 °F91 %30.19 in4.0 miCalmDrizzle
12:35 PM72.3 °F70.3 °F93 %30.19 in3.0 miCalmRainLight Rain
12:55 PM72.5 °F70.5 °F93 %30.19 in2.5 miCalm0.02 inRainRain
1:15 PM72.9 °F71.2 °F95 %30.18 in3.0 miCalm0.01 inRainLight Rain
1:35 PM73.8 °F71.1 °F91 %30.17 in4.0 miSE (140°)3.5 mph0.01 inLight Drizzle
1:55 PM74.3 °F70.2 °F87 %30.17 in5.0 miCalm0.02 inOvercast
2:15 PM73.9 °F69.8 °F87 %30.17 in5.0 miCalmOvercast
2:35 PM73.9 °F68.5 °F83 %30.17 in7.0 miSouth (180°)3.5 mphRainLight Rain
2:55 PM73.0 °F69.1 °F87 %30.16 in7.0 miCalmLight Drizzle
3:15 PM73.0 °F69.8 °F90 %30.16 in4.0 miCalmRainLight Rain
3:35 PM73.4 °F70.3 °F90 %30.15 in5.0 miCalmRainLight Rain
3:55 PM73.0 °F70.7 °F92 %30.15 in4.0 miCalm0.01 inRainLight Rain
4:15 PM73.0 °F70.7 °F92 %30.14 in4.0 miCalm0.01 inRainLight Rain
4:35 PM73.0 °F69.6 °F89 %30.13 in5.0 miCalm0.02 inLight Drizzle
4:55 PM73.0 °F70.0 °F90 %30.13 in5.0 miCalm0.02 inMostly Cloudy
5:15 PM72.9 °F70.0 °F91 %30.12 in7.0 miSSE (150°)3.5 mphRainLight Rain
5:35 PM73.0 °F66.9 °F81 %30.13 in10.0 miCalmRainLight Rain
5:55 PM73.0 °F67.5 °F83 %30.13 in10.0 miCalmLight Drizzle
7:15 PM71.1 °F69.8 °F96 %30.11 in5.0 miCalmOvercast
7:35 PM71.2 °F69.4 °F94 %30.12 in5.0 miCalmOvercast
7:55 PM71.2 °F69.3 °F93 %30.12 in7.0 miCalmOvercast
8:15 PM70.0 °F69.3 °F98 %30.13 in3.0 miCalmOvercast
8:35 PM69.8 °F69.1 °F98 %30.13 in4.0 miCalmOvercast
8:55 PM70.0 °F69.1 °F97 %30.13 in4.0 miNE (40°)3.5 mphDrizzle
9:15 PM69.8 °F69.1 °F98 %30.14 in3.0 miCalmDrizzle
9:35 PM68.9 °F67.5 °F95 %30.15 in4.0 miCalm0.01 inDrizzle
9:55 PM68.4 °F67.5 °F97 %30.16 in4.0 miNNE (20°)3.5 mph0.01 inDrizzle
10:15 PM68.0 °F67.1 °F97 %30.16 in4.0 miNNE (30°)5.8 mph0.03 inRainRain
10:35 PM67.1 °F66.2 °F97 %30.16 in5.0 miNE (50°)4.6 mph0.04 inOvercast
10:55 PM67.1 °F65.8 °F96 %30.17 in7.0 miCalm0.04 inRainLight Rain
11:15 PM66.7 °F65.8 °F97 %30.17 in5.0 miEast (80°)3.5 mphLight Drizzle
11:35 PM66.4 °F66.0 °F99 %30.16 in4.0 miENE (60°)4.6 mph0.01 inRainLight Rain
Hourly data recorded from KMTV, located miles away from Patrick Springs, Virginia







STORIES FROM OUR PARTNERS